Racecast

Portage Invitational

Portage West MS · 5000m · Boys · Division 1 Varsity · 2012-10-06 · MI

Course difficulty: -0.003

Race-day weather: 46°F · wind 45 mph · humidity 58%

View full meet →

Team scores

Place Team Points 12345 67
1 Hil. Davidson (OH) 106 6 10 19 27 44 51 57
2 Saline (MI) 129 8 16 17 41 47 56 81
3 Rockford (MI) 160 14 21 34 37 54 75 125
4 Grand Blanc (MI) 174 5 20 22 29 98 132 227
5 Ann Arbor Pioneer (MI) 212 3 12 38 52 107 110 133
6 TC Central (Traverse City) (MI) 246 31 33 36 70 76 84 102
7 Hartland (MI) 251 2 4 32 94 119 122 181
8 Port Huron Northern (MI) 285 9 26 72 78 100 104 212
9 Pinckney (MI) 286 23 28 61 83 91 99 105
10 Grandville (MI) 298 30 50 62 77 79 112 163
11 Dexter (MI) 302 11 13 67 68 143 152 198
12 GR Kenowa Hills (MI) 413 1 73 93 116 130 155 192
13 Wyandotte Roosevelt (MI) 417 42 59 85 89 142 150 162
14 Brighton (MI) 419 24 48 97 106 144 170 175
15 Hudsonville (MI) 430 40 49 65 123 153 165 228
16 Grand Haven (MI) 443 15 82 108 117 121 154 176
17 TC West (Traverse City) (MI) 454 55 86 87 92 134 206
18 Grand Ledge (MI) 474 18 60 74 140 182 196 256
19 Portage Central (MI) 531 25 118 120 127 141 151 166
20 Temperance Bedford (MI) 560 58 63 129 136 174 197 200
21 Ann Arbor Huron (MI) 573 45 90 131 146 160 164 180
22 Okemos (MI) 589 43 71 135 168 172 186 236
23 Woodhaven Brownstown (MI) 597 7 88 128 159 215 225 246
24 Caledonia (MI) 623 95 96 109 156 167 169 188
25 Alpena (MI) 632 39 124 126 139 204 232 251
26 Ann Arbor Skyline (MI) 647 53 64 158 179 193 235 249
27 Portage Northern (MI) 715 35 80 185 201 214 234 248
28 BC Lakeview (MI) 755 69 147 157 178 203 238 245
29 Bay City Western (MI) 758 46 101 194 207 210 217 224
30 FHC GR Forest Hills Central (MI) 784 114 149 171 173 177 205 226
31 East Kentwood (MI) 786 103 137 145 199 202 221 230
32 Kalamazoo Central (MI) 826 113 115 184 195 219 220 260
33 Muskegon Mona Shores (MI) 849 66 161 183 209 229 239 243
34 Jenison (MI) 951 111 138 223 237 241 242
35 Huntington North (IN) 1037 189 208 211 213 216 218 231
36 Muskegon (MI) 1125 148 233 240 244 262
37 Kalamazoo Loy Norrix (MI) 1129 187 190 247 252 253 254 255
38 Monroe (MI) 1178 191 222 250 257 258 259 261

As scored by the meet.

Results

Place Athlete Grade School Time Rating Points
1 Jeff Bajema 12 GR Kenowa Hills (MI) 1 15:15.8 PR 133.7 1
2 Sean Pengelly 12 Hartland (MI) 1 15:23.9 PR 132.5 2
3 Costa Willets 11 Ann Arbor Pioneer (MI) 1 15:30.1 PR 131.6 3
4 Jareb Duggan 11 Hartland (MI) 2 15:35.8 PR 130.8 4
5 Grant Fisher 10 Grand Blanc (MI) 1 15:42.2 PR 129.9 5
6 Colin Burdette 10 Hil. Davidson (OH) 1 15:48.6 PR 129.0 6
7 Conrad Schultz 12 Woodhaven Brownstown (MI) 1 15:49.8 PR 128.9 7
8 Grant Praschan 12 Saline (MI) 1 15:51.7 PR 128.6 8
9 Tyler Delange 12 Port Huron Northern (MI) 1 15:52.3 PR 128.5 9
10 Garrett Knapik 11 Hil. Davidson (OH) 2 15:55.2 PR 128.1 10
11 Joe Wendorf 12 Dexter (MI) 1 15:57 PR 127.9 11
12 Galen Burrell 12 Ann Arbor Pioneer (MI) 2 15:57.7 127.8 12
13 Matt Greve 12 Dexter (MI) 2 15:58 SR 127.8 13
14 Drew Woznick 12 Rockford (MI) 1 15:58.9 127.7 14
15 Justin Pippel 12 Grand Haven (MI) 1 16:01.2 PR 127.3 15
16 Dylan Jennings 12 Saline (MI) 2 16:01.4 PR 127.3 16
17 Anthony Lamus 12 Saline (MI) 3 16:01.8 PR 127.3 17
18 Nathan Megge 11 Grand Ledge (MI) 1 16:02.5 PR 127.2 18
19 Johnny McKeown 10 Hil. Davidson (OH) 3 16:02.8 PR 127.1 19
20 Dillyn Foy 11 Grand Blanc (MI) 2 16:03 PR 127.1 20
21 Austin Benoit 12 Rockford (MI) 2 16:03.6 127.0 21
22 Jonathan Derry 12 Grand Blanc (MI) 3 16:03.9 PR 127.0 22
23 Tyler Sanders 12 Pinckney (MI) 1 16:04.3 PR 126.9 23
24 Paul Kosaian 12 Brighton (MI) 1 16:05.1 126.8 24
25 Connor Wuori 10 Portage Central (MI) 1 16:05.6 126.8 25
26 Matt Thomas 10 Port Huron Northern (MI) 2 16:07.7 PR 126.5 26
27 Anthony Caviolo 12 Hil. Davidson (OH) 4 16:08.5 PR 126.4 27
28 Wesley Sanders 12 Pinckney (MI) 2 16:10.1 PR 126.2 28
29 Carson Truesdell 12 Grand Blanc (MI) 4 16:11.3 126.0 29
30 Cass Millenbach 11 Grandville (MI) 1 16:14.5 125.6 30
31 Anthony Berry 9 TC Central (Traverse City) (MI) 1 16:14.7 PR 125.6 31
32 Patrick Gavitt 11 Hartland (MI) 3 16:16.1 PR 125.4 32
33 Kyle Dotterrer 11 TC Central (Traverse City) (MI) 2 16:16.9 125.3 33
34 Chris Coles 12 Rockford (MI) 3 16:18 125.2 34
35 Alec Sullivan 12 Portage Northern (MI) 1 16:18.4 PR 125.1 35
36 Cam McAuliffe 10 TC Central (Traverse City) (MI) 3 16:18.8 125.1 36
37 Grant Aman 12 Rockford (MI) 4 16:19.1 125.0 37
38 Nick Aukerman 12 Ann Arbor Pioneer (MI) 3 16:20.4 PR 124.9 38
39 Ethan Crowell 12 Alpena (MI) 1 16:21.6 PR 124.7 39
40 Taylor Tafelsky 12 Hudsonville (MI) 1 16:22.1 SR 124.6 40
41 Andrew Kitto 12 Saline (MI) 4 16:24.2 PR 124.4 41
42 Dominic Davis 10 Wyandotte Roosevelt (MI) 1 16:25.9 PR 124.2 42
43 Daniel Kroth 11 Okemos (MI) 1 16:26.1 PR 124.1 43
44 Spencer Schlecht 11 Hil. Davidson (OH) 5 16:26.5 SR 124.1 44
45 Lynus Zullo 10 Ann Arbor Huron (MI) 1 16:27.3 124.0 45
46 Nathan Vorwerck 12 Bay City Western (MI) 1 16:27.8 SR 123.9 46
47 Kevin Hall 10 Saline (MI) 5 16:27.9 PR 123.9 47
48 Jim Birney 12 Brighton (MI) 2 16:28.4 123.8 48
49 Jake Holwerda 12 Hudsonville (MI) 2 16:30.7 SR 123.6 49
50 Travis Sisovsky 12 Grandville (MI) 2 16:32.7 PR 123.3 50
51 Lou Takahashi 12 Hil. Davidson (OH) 6 16:32.9 123.3 51
52 Lucas Arrivo 10 Ann Arbor Pioneer (MI) 4 16:33.4 PR 123.2 52
53 Jon Russell 10 Ann Arbor Skyline (MI) 1 16:33.8 123.2 53
54 Isaac Harding 9 Rockford (MI) 5 16:33.8 PR 123.2 54
55 Alec Ondrajka 12 TC West (Traverse City) (MI) 1 16:34.9 PR 123.0 55
56 Matthew Elms 12 Saline (MI) 6 16:35.5 PR 123.0 56
57 Luke Hoover 10 Hil. Davidson (OH) 7 16:35.9 PR 122.9 57
58 Ben Wexler 12 Temperance Bedford (MI) 1 16:37.9 PR 122.7 58
59 Cameron Herron 11 Wyandotte Roosevelt (MI) 2 16:39.3 122.5 59
60 Michael Buffin 11 Grand Ledge (MI) 2 16:39.6 PR 122.5 60
61 Ryne Weisenberger 11 Pinckney (MI) 3 16:41.5 PR 122.2 61
62 Matt Smith 9 Grandville (MI) 3 16:41.8 PR 122.2 62
63 Adam Blaida 11 Temperance Bedford (MI) 2 16:43 PR 122.1 63
64 Eric Jensen 12 Ann Arbor Skyline (MI) 2 16:43.5 122.0 64
65 Jack Lindsay 11 Hudsonville (MI) 3 16:44.1 PR 121.9 65
66 Jacob Baker 12 Muskegon Mona Shores (MI) 1 16:44.6 PR 121.8 66
67 Mike Hauke 12 Dexter (MI) 3 16:45.5 121.7 67
68 Blake Loudermilk 12 Dexter (MI) 4 16:45.5 PR 121.7 68
69 Blake Wilson 12 BC Lakeview (MI) 1 16:45.8 121.7 69
70 Nicholas Tarsa 12 TC Central (Traverse City) (MI) 4 16:46.5 121.6 70
71 David McKinley 11 Okemos (MI) 2 16:46.7 SR 121.6 71
72 Ty Dickinson 11 Port Huron Northern (MI) 3 16:47.5 PR 121.5 72
73 Donavan Brazier 10 GR Kenowa Hills (MI) 2 16:48 PR 121.4 73
74 Austin Rios 12 Grand Ledge (MI) 3 16:48.5 PR 121.4 74
75 Caleb Cuneo 12 Rockford (MI) 6 16:49 PR 121.3 75
76 Cam Marshall 12 TC Central (Traverse City) (MI) 5 16:49.6 PR 121.2 76
77 Logan Bellgraph 11 Grandville (MI) 4 16:50.8 SR 121.1 77
78 Thomas Mullally 12 Port Huron Northern (MI) 4 16:52 PR 121.0 78
79 Cody Freeman 12 Grandville (MI) 5 16:52.2 SR 120.9 79
80 Alex Kulpa 11 Portage Northern (MI) 2 16:52.6 PR 120.9 80
81 John Dolsen 11 Saline (MI) 7 16:52.8 PR 120.9 81
82 Will Swain 12 Grand Haven (MI) 2 16:53 PR 120.8 82
83 Isaac Harris 10 Pinckney (MI) 4 16:55.2 PR 120.6 83
84 Andrew Bruning 12 TC Central (Traverse City) (MI) 6 16:56.3 PR 120.4 84
85 Danny May 11 Wyandotte Roosevelt (MI) 3 16:57.1 PR 120.3 85
86 Kieran Hall 12 TC West (Traverse City) (MI) 2 16:57.7 120.3 86
87 Jimmy Seekamp 10 TC West (Traverse City) (MI) 3 16:57.7 PR 120.3 87
88 Cameron Karagitz 11 Woodhaven Brownstown (MI) 2 16:57.9 120.3 88
89 Jake Coulter 11 Wyandotte Roosevelt (MI) 4 16:58.6 120.2 89
90 Jordan Steiff 11 Ann Arbor Huron (MI) 2 16:58.8 120.2 90
91 Davis Smith 12 Pinckney (MI) 5 16:59.6 120.1 91
92 Nick Hirschenberger 9 TC West (Traverse City) (MI) 4 16:59.7 PR 120.1 92
93 Kevin Elliott 10 GR Kenowa Hills (MI) 3 17:00.2 PR 120.0 93
94 Jesse Neal 12 Hartland (MI) 4 17:01.3 SR 119.9 94
95 Trent Feyen 12 Caledonia (MI) 1 17:03.2 PR 119.6 95
96 Austin Vanlaar 12 Caledonia (MI) 2 17:03.3 PR 119.6 96
97 Zach Mayfield 12 Brighton (MI) 3 17:04.4 PR 119.5 97
98 Brandon Blake 11 Grand Blanc (MI) 5 17:04.6 119.5 98
99 John Niska 11 Pinckney (MI) 6 17:04.7 PR 119.5 99
100 Scott Stokan 12 Port Huron Northern (MI) 5 17:05.2 PR 119.4 100
101 Justin Ayres 11 Bay City Western (MI) 2 17:05.4 PR 119.4 101
102 Chris Brower 10 TC Central (Traverse City) (MI) 7 17:05.6 PR 119.4 102
103 Adam Cichon 12 East Kentwood (MI) 1 17:05.6 119.4 103
104 Brad Hunt 11 Port Huron Northern (MI) 6 17:05.8 PR 119.3 104
105 Tyler Smar 11 Pinckney (MI) 7 17:06 119.3 105
106 Ryan Kruzel 12 Brighton (MI) 4 17:06.5 119.2 106
107 Max Shpilband 12 Ann Arbor Pioneer (MI) 5 17:07.6 SR 119.1 107
108 Nick Johnson 10 Grand Haven (MI) 3 17:07.8 PR 119.1 108
109 Flynn Darby 10 Caledonia (MI) 3 17:07.8 119.1 109
110 Dan Fonte 12 Ann Arbor Pioneer (MI) 6 17:09 PR 119.0 110
111 Jason Zellers 9 Jenison (MI) 1 17:09.5 PR 118.9 111
112 Mitchell Parsons 10 Grandville (MI) 6 17:09.6 118.9 112
113 Jeff Torano 10 Kalamazoo Central (MI) 1 17:10 PR 118.8 113
114 Evan Harrison 12 FHC GR Forest Hills Central (MI) 1 17:10.5 PR 118.8 114
115 Andrew Kaylor 12 Kalamazoo Central (MI) 2 17:11 PR 118.7 115
116 Luke Simonds 10 GR Kenowa Hills (MI) 4 17:12 118.6 116
117 Ashkii Wilson 9 Grand Haven (MI) 4 17:12.3 PR 118.6 117
118 Ben Greaves 12 Portage Central (MI) 2 17:12.6 118.6 118
119 Grant Hamilton 11 Hartland (MI) 5 17:13.5 SR 118.4 119
120 Kevin Phelps 12 Portage Central (MI) 3 17:14 118.4 120
121 Turner Sale 11 Grand Haven (MI) 5 17:14.4 SR 118.3 121
122 Josh Nickerson 9 Hartland (MI) 6 17:14.6 PR 118.3 122
123 Devon Main 10 Hudsonville (MI) 4 17:15.3 118.2 123
124 R.J. Centala 11 Alpena (MI) 2 17:15.6 SR 118.2 124
125 Tyler Aman 12 Rockford (MI) 7 17:15.7 118.2 125
126 Elisha Martin 11 Alpena (MI) 3 17:16.2 PR 118.1 126
127 Zach Dunnavent 12 Portage Central (MI) 4 17:16.8 118.1 127
128 Logan Kleam 9 Woodhaven Brownstown (MI) 3 17:17.9 PR 117.9 128
129 Max Lezon 11 Temperance Bedford (MI) 3 17:18.6 PR 117.9 129
130 Gabe Momber 11 GR Kenowa Hills (MI) 5 17:18.7 117.8 130
131 Michael Barton 11 Ann Arbor Huron (MI) 3 17:19.5 PR 117.8 131
132 Nicholas Voth 11 Grand Blanc (MI) 6 17:21.2 117.6 132
133 Boris Burman 12 Ann Arbor Pioneer (MI) 7 17:21.6 PR 117.5 133
134 Sean Hall 12 TC West (Traverse City) (MI) 5 17:22.3 SR 117.4 134
135 Greg Parker 12 Okemos (MI) 3 17:22.5 PR 117.4 135
136 Logan Smith 12 Temperance Bedford (MI) 4 17:23.5 SR 117.3 136
137 Eric Cichon 11 East Kentwood (MI) 2 17:24.1 PR 117.2 137
138 Matt Devree 12 Jenison (MI) 2 17:24.2 PR 117.2 138
139 Jacob Benson 12 Alpena (MI) 4 17:25.3 117.1 139
140 Ben Heriford 12 Grand Ledge (MI) 4 17:25.5 PR 117.1 140
141 Brad Worthington 11 Portage Central (MI) 5 17:27.5 116.9 141
142 Ryan Kusibab 12 Wyandotte Roosevelt (MI) 5 17:28.3 116.8 142
143 Luke Bottomley 10 Dexter (MI) 5 17:28.4 PR 116.8 143
144 Blake Harrity 11 Brighton (MI) 5 17:29.4 116.7 144
145 Nolan Meister 9 East Kentwood (MI) 3 17:30.3 PR 116.6 145
146 Brandt Hofman 12 Ann Arbor Huron (MI) 4 17:30.4 116.5 146
147 Colin Read 11 BC Lakeview (MI) 2 17:30.4 116.5 147
148 Ernesto Gutierrez 12 Muskegon (MI) 1 17:30.4 116.5 148
149 Bryce McBride 11 FHC GR Forest Hills Central (MI) 2 17:30.8 PR 116.5 149
150 Austin Rice 12 Wyandotte Roosevelt (MI) 6 17:30.9 PR 116.5 150
151 Richard Phillips 12 Portage Central (MI) 6 17:30.9 116.5 151
152 Casey Hanson 10 Dexter (MI) 6 17:31.3 PR 116.4 152
153 Kyle Chamberlain 9 Hudsonville (MI) 5 17:31.4 PR 116.4 153
154 Jordan Diephouse 9 Grand Haven (MI) 6 17:31.6 PR 116.4 154
155 Adam Bundy 10 GR Kenowa Hills (MI) 6 17:33.3 116.2 155
156 Lucas Barnes 12 Caledonia (MI) 4 17:33.3 116.2 156
157 Brandon VanOosten 9 BC Lakeview (MI) 3 17:34 116.1 157
158 Adam Gaboury 10 Ann Arbor Skyline (MI) 3 17:34.5 PR 116.1 158
159 Kris Childers 11 Woodhaven Brownstown (MI) 4 17:34.5 116.1 159
160 John Giles 9 Ann Arbor Huron (MI) 5 17:34.9 116.0 160
161 Ben Cyr 12 Muskegon Mona Shores (MI) 2 17:35.5 PR 116.0 161
162 Sean Pearce 12 Wyandotte Roosevelt (MI) 7 17:35.5 PR 116.0 162
163 Shayden Fisher 9 Grandville (MI) 7 17:36 PR 115.9 163
164 Acer Xu 12 Ann Arbor Huron (MI) 6 17:36.7 115.8 164
165 Nate Knoth 12 Hudsonville (MI) 6 17:37.3 SR 115.8 165
166 Mac Westra 11 Portage Central (MI) 7 17:37.9 115.7 166
167 Jensen Miller 11 Caledonia (MI) 5 17:38.3 115.7 167
168 Jason Letavish 12 Okemos (MI) 4 17:38.5 115.7 168
169 Cody Jakiel 9 Caledonia (MI) 6 17:39.1 115.6 169
170 Ethan Thomas 11 Brighton (MI) 6 17:39.5 115.5 170
171 John Dwyer 12 FHC GR Forest Hills Central (MI) 3 17:39.6 115.5 171
172 Kael Fineout 10 Okemos (MI) 5 17:40.6 115.4 172
173 Colin McLaughlin 12 FHC GR Forest Hills Central (MI) 4 17:41.1 PR 115.4 173
174 Tyler Benore 11 Temperance Bedford (MI) 5 17:41.1 PR 115.4 174
175 Josh Fenwick 11 Brighton (MI) 7 17:41.2 115.3 175
176 Christian Winters 12 Grand Haven (MI) 7 17:44.6 PR 115.0 176
177 Cameron Jackson 10 FHC GR Forest Hills Central (MI) 5 17:45.6 114.9 177
178 Jon Haadsma 10 BC Lakeview (MI) 4 17:45.8 114.8 178
179 Thomas Dolce 12 Ann Arbor Skyline (MI) 4 17:46.4 114.8 179
180 Spencer Lassaline 11 Ann Arbor Huron (MI) 7 17:46.6 114.8 180
181 Noah Kramer 9 Hartland (MI) 7 17:46.6 114.8 181
182 Tyler Bannhard 12 Grand Ledge (MI) 5 17:47.7 SR 114.7 182
183 Pat Taylor 11 Muskegon Mona Shores (MI) 3 17:48 114.6 183
184 Isaac Anderson 12 Kalamazoo Central (MI) 3 17:48.5 PR 114.6 184
185 Evan Williams 11 Portage Northern (MI) 3 17:49.3 114.5 185
186 Dylan Gray 10 Okemos (MI) 6 17:51.9 114.2 186
187 Joseph Veeder 11 Kalamazoo Loy Norrix (MI) 1 17:52.5 PR 114.1 187
188 Josh Risner 11 Caledonia (MI) 7 17:53.1 114.1 188
189 Dustin Campbell 10 Huntington North (IN) 1 17:53.8 PR 114.0 189
190 Andrew Levy 12 Kalamazoo Loy Norrix (MI) 2 17:56.5 PR 113.7 190
191 Anthony Wohlfeil 9 Monroe (CA) 1 17:57.2 113.6 191
192 Joe Jordan 11 GR Kenowa Hills (MI) 7 17:57.6 113.6 192
193 Abe Rycus 10 Ann Arbor Skyline (MI) 5 17:57.7 113.6 193
194 Jacqoub Littlejohn 10 Bay City Western (MI) 3 17:58.3 PR 113.5 194
195 Gerritt Anderson 12 Kalamazoo Central (MI) 4 17:58.4 PR 113.5 195
196 Tony Patino 10 Grand Ledge (MI) 6 17:59.1 PR 113.4 196
197 Aaron Hilsenbeck 12 Temperance Bedford (MI) 6 18:00.9 113.2 197
198 Kavi Kulkarni 10 Dexter (MI) 7 18:02.7 PR 113.1 198
199 Demeatrice Webster 9 East Kentwood (MI) 4 18:04.2 112.9 199
200 Chase DuVall 11 Temperance Bedford (MI) 7 18:05 PR 112.8 200
201 Ian Otto 10 Portage Northern (MI) 4 18:05.9 PR 112.7 201
202 Connor Green 10 East Kentwood (MI) 5 18:06.1 PR 112.7 202
203 Peter Colquhoun 12 BC Lakeview (MI) 5 18:07.8 PR 112.5 203
204 Ben Diamond 11 Alpena (MI) 5 18:08.2 PR 112.5 204
205 Trent Vanwagoner 11 FHC GR Forest Hills Central (MI) 6 18:08.9 PR 112.4 205
206 Matt Zenner 12 TC West (Traverse City) (MI) 6 18:09.8 112.3 206
207 Robert Billette 10 Bay City Western (MI) 4 18:10.9 112.2 207
208 Kyler McVoy 10 Huntington North (IN) 2 18:12.2 PR 112.1 208
209 Evan Wiewiora 12 Muskegon Mona Shores (MI) 4 18:12.3 PR 112.1 209
210 Antonio Wenglikowski 9 Bay City Western (MI) 5 18:12.8 112.0 210
211 Walter Hacker 10 Huntington North (IN) 3 18:13.4 112.0 211
212 Brett Parent 11 Port Huron Northern (MI) 7 18:14.2 PR 111.9 212
213 Alex Overby 12 Huntington North (IN) 4 18:17.1 PR 111.6 213
214 Mack Evans 11 Portage Northern (MI) 5 18:17.5 111.5 214
215 Christian Ramirez 12 Woodhaven Brownstown (MI) 5 18:18.9 111.4 215
216 Mike Donahue 12 Huntington North (IN) 5 18:19.4 PR 111.3 216
217 Alex Schlatter 10 Bay City Western (MI) 6 18:19.7 PR 111.3 217
218 Jason Vogleman 12 Huntington North (IN) 6 18:19.8 PR 111.3 218
219 Mitchell Anderson 12 Kalamazoo Central (MI) 5 18:20.1 PR 111.3 219
220 Bryant Hepp 12 Kalamazoo Central (MI) 6 18:20.6 PR 111.2 220
221 Angelo Leon 9 East Kentwood (MI) 6 18:21.3 111.2 221
222 Adam Russell 11 Monroe (CA) 2 18:22.6 111.0 222
223 Josh Hill 12 Jenison (MI) 3 18:23.4 110.9 223
224 Quinton Krueger 12 Bay City Western (MI) 7 18:23.4 PR 110.9 224
225 John Bajorek 11 Woodhaven Brownstown (MI) 6 18:23.8 PR 110.9 225
226 Noah Hatley 10 FHC GR Forest Hills Central (MI) 7 18:25.2 110.8 226
227 Jonathan Voth 9 Grand Blanc (MI) 7 18:25.2 110.8 227
228 Calvin Athy 12 Hudsonville (MI) 7 18:27.7 110.5 228
229 Neil Olson 11 Muskegon Mona Shores (MI) 5 18:31.1 PR 110.2 229
230 De'Aundre Dawson 11 East Kentwood (MI) 7 18:34.4 109.8 230
231 Logan Worsham 10 Huntington North (IN) 7 18:37.7 109.5 231
232 Nevin McHarg 10 Alpena (MI) 6 18:38.3 109.5 232
233 Everett DeBacher 11 Muskegon (MI) 2 18:38.3 109.5 233
234 Wayne Matunas 9 Portage Northern (MI) 6 18:39.4 PR 109.4 234
235 Nicholas Angerman 10 Ann Arbor Skyline (MI) 6 18:40.5 109.2 235
236 Kyle White 11 Okemos (MI) 7 18:40.5 109.2 236
237 Ryan McIntyre 9 Jenison (MI) 4 18:43.3 109.0 237
238 Ben Schimpf 12 BC Lakeview (MI) 6 18:45.5 108.8 238
239 Michael Gale-Butto 11 Muskegon Mona Shores (MI) 6 18:47.9 PR 108.5 239
240 Anthony Villanueva 10 Muskegon (MI) 3 18:49 108.4 240
241 Jared Zink 10 Jenison (MI) 5 18:49.4 108.4 241
242 Brian Connelly 10 Jenison (MI) 6 18:52.1 108.1 242
243 Jacob Lund 12 Muskegon Mona Shores (MI) 7 18:54.5 107.9 243
244 Edward Watson 12 Muskegon (MI) 4 18:59.2 PR 107.4 244
245 Hayden Eldred 11 BC Lakeview (MI) 7 19:02 107.2 245
246 Dean Strawsine 12 Woodhaven Brownstown (MI) 7 19:02.4 107.2 246
247 Ceon Houston 10 Kalamazoo Loy Norrix (MI) 3 19:06.6 PR 106.8 247
248 Marius VanderHoff 10 Portage Northern (MI) 7 19:18.5 105.7 248
249 Zachary Reynolds 9 Ann Arbor Skyline (MI) 7 19:20.3 105.5 249
250 Jake Bullard 12 Monroe (CA) 3 19:20.9 PR 105.4 250
251 Tellis Donajkowski 10 Alpena (MI) 7 19:24.2 105.2 251
252 Nick Gaunt 11 Kalamazoo Loy Norrix (MI) 4 19:31 104.5 252
253 Darvious Wallace 10 Kalamazoo Loy Norrix (MI) 5 19:33.5 PR 104.3 253
254 Miguel Santos 9 Kalamazoo Loy Norrix (MI) 6 19:36.7 104.0 254
255 Israel Cortez 9 Kalamazoo Loy Norrix (MI) 7 19:48.2 103.0 255
256 Jack Twarozynski 10 Grand Ledge (MI) 7 19:48.6 256
257 Tommy Brandys 10 Monroe (CA) 4 20:11.3 PR 101.1 257
258 Noah Oetting 11 Monroe (CA) 5 20:22.5 100.1 258
259 Jacob Nelson 11 Monroe (CA) 6 20:25.3 PR 99.9 259
260 Daniel Woodworth 12 Kalamazoo Central (MI) 7 20:34.7 99.1 260
261 Lakota Nielsen 10 Monroe (CA) 7 20:45.5 PR 98.3 261
262 Kevin Sanchez 12 Muskegon (MI) 5 21:52.9 93.2 262
Something wrong on this page? Report it →